LiveATC.Net - Listen to live air traffic control over the Internet!


ICAO: EPKR  IATA:   Airport: Krosno Airport
City: Krosno
Country: Poland   Continent: Europe
EPRZ METAR Weather: EPRZ 262200Z 27013KT 5000 -RASN BR BKN004 01/00 Q1021
EPKR Flight Activity (FlightAware)
EPKR Webcam:  (Airport Webcams) 

EPKR CTAF
Feed Status: UP   Listeners: 0
Listen in your browser - HTML5 player (in browser, HTML5)
Click here to listen with your own player (launches your MP3 player)
Archive Access: EPKR CTAF
FacilityFrequency
Krosno CTAF119.555

NOTICE

Unauthorized use prohibited. See LiveATC.net Terms of Service


Airport/ARTCC Code
Frequency Search
(e.g., 124.400, 128.75)
Site-wide search
 


Browse Feeds
Top 50 Feeds
HF Oceanic Feeds
Coverage Map
Bad Weather Areas

LiveATC FAQ
Offer LiveATC feed
Contact LiveATC.net
Press Inquiries

LiveATC on iPhone
LiveATC on Android

LiveATC Mobile
(Mobile browser)

ATC Audio Archives
Interesting Recordings

LiveATC Forums


Home Page
About LiveATC.net
Make a Donation
Terms of Use
Privacy Policy

Canadian Air Freqs

AIRMETs/SIGMETs

FAA Airport Status
NAS Status
Arrival Demand


Server Software By:
Icecast.org
Liquidsoap